Princeton, MN

6:27 AM CST on November 17, 2019 (GMT -0600)
Princeton Municipal

Weather History for KPNM - August, 2019

Change the Weather History Date:

Saturday, August 3, 2019

  Actual Average Record
Temperature  
Mean Temperature 78 °F -  
Max Temperature 87 °F 78 °F 91 °F (2005)
Min Temperature 69 °F 55 °F 33 °F (2001)
Cooling Degree Days 13    
Growing Degree Days 28 (Base 50)    
Moisture  
Dew Point 66 °F    
Average Humidity 73    
Maximum Humidity 94    
Minimum Humidity 43    
Precipitation  
Precipitation 0.00 in - - ()
Sea Level Pressure  
Sea Level Pressure 30.09 in    
Wind  
Wind Speed 1 mph (SSW)    
Max Wind Speed 7 mph    
Max Gust Speed -    
Visibility 10 miles    
Events      
Averages and records for this station are not official NWS values.
T = Trace of Precipitation, MM = Missing Value Source: NWS Daily Summary

Daily Weather History Graph

Daily Weather History Graph

Search for Another Location

Airport or City:

Astronomy

Aug. 03, 2019 Rise Set
Actual Time 6:00 AM CDT 8:40 PM CDT
Civil Twilight 5:26 AM CDT 9:14 PM CDT
Nautical Twilight 4:43 AM CDT 9:56 PM CDT
Astronomical Twilight 3:53 AM CDT 10:45 PM CDT
Moon 9:00 AM CDT (8/3) 10:37 PM CDT (8/3)
Length of Visible Light 15h 47m
Length of Day
14h 39m
Waxing Crescent, 10% of the Moon is Illuminated
Aug 3
Waxing Crescent
Aug 7
First Quarter
Aug 15
Full
Aug 23
Last Quarter
Aug 30
New

Hourly Weather History & Observations

Time (CDT) Temp. Heat Index Dew Point Humidity Pressure Visibility Wind Dir Wind Speed Gust Speed Precip Events Conditions
12:15 AM 71.6 °F - 68.0 °F 88% 30.12 in 10.0 mi Calm Calm - N/A   Clear
12:16 AM 71.6 °F - 68.0 °F 88% 30.12 in 10.0 mi Calm Calm - N/A   Clear
12:35 AM 71.6 °F - 68.0 °F 88% 30.12 in 10.0 mi Calm Calm - N/A   Clear
12:55 AM 69.8 °F - 68.0 °F 94% 30.12 in 10.0 mi Calm Calm - N/A   Clear
1:18 AM 69.8 °F - 68.0 °F 94% 30.12 in 10.0 mi Calm Calm - N/A   Scattered Clouds
1:36 AM 69.8 °F - 68.0 °F 94% 30.12 in 10.0 mi Calm Calm - N/A   Mostly Cloudy
1:55 AM 69.8 °F - 68.0 °F 94% 30.12 in 7.0 mi Calm Calm - N/A   Scattered Clouds
2:15 AM 69.8 °F - 68.0 °F 94% 30.12 in 10.0 mi Calm Calm - N/A   Mostly Cloudy
2:39 AM 69.8 °F - 68.0 °F 94% 30.12 in 10.0 mi Calm Calm - N/A   Overcast
2:57 AM 69.8 °F - 68.0 °F 94% 30.12 in 10.0 mi Calm Calm - N/A   Mostly Cloudy
3:15 AM 69.8 °F - 68.0 °F 94% 30.11 in 10.0 mi Calm Calm - N/A   Mostly Cloudy
3:35 AM 69.8 °F - 68.0 °F 94% 30.11 in 10.0 mi Calm Calm - N/A   Overcast
3:55 AM 69.8 °F - 68.0 °F 94% 30.11 in 10.0 mi Calm Calm - N/A   Overcast
4:18 AM 69.8 °F - 68.0 °F 94% 30.11 in 10.0 mi Calm Calm - N/A   Overcast
4:35 AM 69.8 °F - 68.0 °F 94% 30.11 in 7.0 mi Calm Calm - N/A   Overcast
4:55 AM 69.8 °F - 68.0 °F 94% 30.11 in 7.0 mi Calm Calm - N/A   Mostly Cloudy
5:15 AM 69.8 °F - 68.0 °F 94% 30.12 in 10.0 mi Calm Calm - N/A   Overcast
5:16 AM 69.8 °F - 68.0 °F 94% 30.12 in 10.0 mi Calm Calm - N/A   Overcast
5:39 AM 69.8 °F - 68.0 °F 94% 30.12 in 10.0 mi Calm Calm - N/A   Overcast
5:57 AM 69.8 °F - 68.0 °F 94% 30.13 in 10.0 mi Calm Calm - N/A   Overcast
6:15 AM 69.8 °F - 68.0 °F 94% 30.13 in 10.0 mi Calm Calm - N/A   Overcast
6:35 AM 69.8 °F - 68.0 °F 94% 30.13 in 10.0 mi Calm Calm - N/A   Mostly Cloudy
6:36 AM 69.8 °F - 68.0 °F 94% 30.13 in 10.0 mi Calm Calm - N/A   Mostly Cloudy
6:55 AM 69.8 °F - 68.0 °F 94% 30.12 in 10.0 mi Calm Calm - N/A   Scattered Clouds
7:00 AM 69.8 °F - 68.0 °F 94% 30.12 in 10.0 mi Calm Calm - N/A   Scattered Clouds
7:18 AM 71.6 °F - 69.8 °F 94% 30.13 in 10.0 mi Calm Calm - N/A   Scattered Clouds
7:36 AM 71.6 °F - 68.0 °F 88% 30.13 in 10.0 mi Calm Calm - N/A   Scattered Clouds
7:55 AM 71.6 °F - 66.2 °F 83% 30.13 in 10.0 mi Calm Calm - N/A   Scattered Clouds
8:15 AM 71.6 °F - 69.8 °F 94% 30.14 in 10.0 mi Calm Calm - N/A   Scattered Clouds
8:16 AM 71.6 °F - 69.8 °F 94% 30.14 in 10.0 mi Calm Calm - N/A   Scattered Clouds
8:39 AM 73.4 °F - 68.0 °F 83% 30.13 in 10.0 mi Calm Calm - N/A   Clear
8:57 AM 73.4 °F - 64.4 °F 73% 30.13 in 10.0 mi Calm Calm - N/A   Clear
9:15 AM 73.4 °F - 66.2 °F 78% 30.13 in 10.0 mi Calm Calm - N/A   Clear
9:35 AM 75.2 °F - 66.2 °F 73% 30.13 in 10.0 mi Calm Calm - N/A   Clear
9:55 AM 75.2 °F - 68.0 °F 78% 30.13 in 10.0 mi Calm Calm - N/A   Clear
9:59 AM 77.0 °F - 68.0 °F 74% 30.13 in 10.0 mi Calm Calm - N/A   Clear
10:18 AM 77.0 °F - 68.0 °F 74% 30.13 in 10.0 mi Calm Calm - N/A   Clear
10:36 AM 77.0 °F - 68.0 °F 74% 30.13 in 10.0 mi Calm Calm - N/A   Clear
10:55 AM 80.6 °F 82.7 °F 66.2 °F 61% 30.13 in 10.0 mi Calm Calm - N/A   Clear
11:15 AM 80.6 °F 83.2 °F 68.0 °F 65% 30.12 in 10.0 mi Calm Calm - N/A   Clear
11:39 AM 82.4 °F 84.6 °F 66.2 °F 58% 30.12 in 10.0 mi Calm Calm - N/A   Clear
11:57 AM 82.4 °F 84.6 °F 66.2 °F 58% 30.11 in 10.0 mi Calm Calm - N/A   Clear
12:15 PM 84.2 °F 86.6 °F 66.2 °F 55% 30.11 in 10.0 mi Calm Calm - N/A   Clear
12:35 PM 84.2 °F 86.6 °F 66.2 °F 55% 30.10 in 10.0 mi ESE 5.8 mph - N/A   Clear
12:55 PM 84.2 °F 86.6 °F 66.2 °F 55% 30.10 in 10.0 mi East 4.6 mph - N/A   Clear
1:18 PM 84.2 °F 85.6 °F 64.4 °F 51% 30.10 in 10.0 mi Calm Calm - N/A   Clear
1:36 PM 86.0 °F 87.3 °F 64.4 °F 48% 30.09 in 10.0 mi Calm Calm - N/A   Clear
1:55 PM 87.8 °F 88.5 °F 62.6 °F 43% 30.09 in 10.0 mi SE 4.6 mph - N/A   Scattered Clouds
2:15 PM 87.8 °F 88.5 °F 62.6 °F 43% 30.08 in 10.0 mi Calm Calm - N/A   Scattered Clouds
2:39 PM 87.8 °F 89.4 °F 64.4 °F 46% 30.08 in 10.0 mi WSW 3.5 mph - N/A   Clear
2:57 PM 87.8 °F 88.5 °F 62.6 °F 43% 30.07 in 10.0 mi WSW 3.5 mph - N/A   Clear
3:15 PM 87.8 °F 89.4 °F 64.4 °F 46% 30.07 in 10.0 mi South 3.5 mph - N/A   Clear
3:35 PM 87.8 °F 89.4 °F 64.4 °F 46% 30.07 in 10.0 mi SSE 6.9 mph - N/A   Scattered Clouds
3:55 PM 87.8 °F 89.4 °F 64.4 °F 46% 30.06 in 10.0 mi South 5.8 mph - N/A   Scattered Clouds
3:59 PM 87.8 °F 89.4 °F 64.4 °F 46% 30.06 in 10.0 mi SW 5.8 mph - N/A   Clear
4:17 PM 87.8 °F 89.4 °F 64.4 °F 46% 30.06 in 10.0 mi WSW 4.6 mph - N/A   Clear
4:35 PM 87.8 °F 88.5 °F 62.6 °F 43% 30.06 in 10.0 mi SW 4.6 mph - N/A   Clear
4:36 PM 87.8 °F 88.5 °F 62.6 °F 43% 30.06 in 10.0 mi SW 5.8 mph - N/A   Clear
4:55 PM 87.8 °F 89.4 °F 64.4 °F 46% 30.05 in 10.0 mi West 4.6 mph - N/A   Scattered Clouds
5:15 PM 87.8 °F 89.4 °F 64.4 °F 46% 30.05 in 10.0 mi SW 4.6 mph - N/A   Scattered Clouds
5:20 PM 87.8 °F 89.4 °F 64.4 °F 46% 30.05 in 10.0 mi SW 3.5 mph - N/A   Scattered Clouds
5:38 PM 86.0 °F 87.3 °F 64.4 °F 48% 30.05 in 10.0 mi SW 5.8 mph - N/A   Clear
5:56 PM 86.0 °F 87.3 °F 64.4 °F 48% 30.04 in 10.0 mi SW 3.5 mph - N/A   Clear
6:15 PM 84.2 °F 84.4 °F 60.8 °F 45% 30.04 in 7.0 mi WSW 4.6 mph - N/A   Clear
6:35 PM 84.2 °F 85.0 °F 62.6 °F 48% 30.04 in 10.0 mi WSW 3.5 mph - N/A   Clear
6:36 PM 84.2 °F 85.0 °F 62.6 °F 48% 30.04 in 10.0 mi SW 3.5 mph - N/A   Clear
6:59 PM 84.2 °F 85.0 °F 62.6 °F 48% 30.05 in 10.0 mi Calm Calm - N/A   Clear
7:17 PM 84.2 °F 85.0 °F 62.6 °F 48% 30.05 in 10.0 mi Calm Calm - N/A   Clear
7:35 PM 82.4 °F 83.9 °F 64.4 °F 54% 30.05 in 10.0 mi Calm Calm - N/A   Clear
7:55 PM 82.4 °F 84.6 °F 66.2 °F 58% 30.04 in 10.0 mi Calm Calm - N/A   Clear
8:15 PM 78.8 °F - 66.2 °F 65% 30.04 in 10.0 mi Calm Calm - N/A   Clear
8:38 PM 75.2 °F - 66.2 °F 73% 30.04 in 10.0 mi Calm Calm - N/A   Clear
8:56 PM 75.2 °F - 64.4 °F 69% 30.04 in 10.0 mi Calm Calm - N/A   Clear
9:15 PM 71.6 °F - 66.2 °F 83% 30.04 in 10.0 mi Calm Calm - N/A   Clear
9:16 PM 71.6 °F - 66.2 °F 83% 30.04 in 10.0 mi Calm Calm - N/A   Clear
9:35 PM 71.6 °F - 66.2 °F 83% 30.05 in 10.0 mi Calm Calm - N/A   Clear
9:59 PM 69.8 °F - 64.4 °F 83% 30.06 in 10.0 mi Calm Calm - N/A   Clear
10:17 PM 69.8 °F - 66.2 °F 88% 30.06 in 10.0 mi Calm Calm - N/A   Clear
10:35 PM 69.8 °F - 66.2 °F 88% 30.07 in 10.0 mi Calm Calm - N/A   Clear
10:36 PM 69.8 °F - 64.4 °F 83% 30.07 in 10.0 mi Calm Calm - N/A   Clear
10:55 PM 69.8 °F - 66.2 °F 88% 30.07 in 10.0 mi Calm Calm - N/A   Clear
10:56 PM 69.8 °F - 66.2 °F 88% 30.07 in 10.0 mi Calm Calm - N/A   Clear
11:15 PM 69.8 °F - 66.2 °F 88% 30.07 in 10.0 mi ENE 4.6 mph - N/A   Clear
11:38 PM 71.6 °F - 66.2 °F 83% 30.07 in 10.0 mi Calm Calm - N/A   Clear
11:56 PM 69.8 °F - 64.4 °F 83% 30.08 in 10.0 mi Calm Calm - N/A   Clear